This is the latest recevied weather packets stored in our database for station/object LU5DTF-1. If no packets are shown the sender has not sent any weather packets the latest 10 day(s).
| Time | Temp. | Humidity | Pressure | Rain* | Wind** | Luminosity | Snow |
|---|---|---|---|---|---|---|---|
| 1778225399 | 11.67° C | 95% | 992.8 hPa | 2.29 mm | - | - | - |
| 1778225100 | 11.67° C | 95% | 992.9 hPa | 2.29 mm | - | - | - |
| 1778224799 | 11.67° C | 95% | 993 hPa | 2.54 mm | - | - | - |
| 1778224499 | 11.67° C | 95% | 993.2 hPa | 3.3 mm | - | - | - |
| 1778224199 | 11.67° C | 95% | 993.3 hPa | 3.56 mm | - | - | - |
| 1778223899 | 11.67° C | 94% | 993.3 hPa | 3.81 mm | - | - | - |
| 1778223599 | 11.67° C | 94% | 993.3 hPa | 4.06 mm | - | - | - |
| 1778223299 | 11.67° C | 94% | 993.4 hPa | 4.06 mm | - | - | - |
| 1778222999 | 11.67° C | 94% | 993.5 hPa | 3.81 mm | - | - | - |
| 1778222699 | 11.67° C | 94% | 993.4 hPa | 3.3 mm | - | - | - |
| 1778222399 | 11.67° C | 94% | 993.4 hPa | 3.3 mm | - | - | - |
| 1778222099 | 11.67° C | 94% | 993.3 hPa | 3.3 mm | - | - | - |
| 1778221799 | 11.67° C | 94% | 993.4 hPa | 2.54 mm | - | - | - |
| 1778221499 | 11.67° C | 94% | 993.6 hPa | 2.29 mm | - | - | - |
| 1778221199 | 11.67° C | 94% | 993.7 hPa | 2.03 mm | - | - | - |
| 1778220899 | 11.67° C | 94% | 993.7 hPa | 1.52 mm | - | - | - |
| 1778220599 | 11.67° C | 94% | 993.7 hPa | 1.27 mm | - | - | - |
| 1778220300 | 11.67° C | 94% | 993.7 hPa | 0.76 mm | - | - | - |
| 1778219999 | 11.67° C | 94% | 993.9 hPa | 0.76 mm | - | - | - |
| 1778219699 | 11.67° C | 94% | 994 hPa | 0.51 mm | - | - | - |
| 1778219400 | 11.67° C | 94% | 994.1 hPa | 0.51 mm | - | - | - |
| 1778219099 | 11.67° C | 94% | 994.1 hPa | 0.51 mm | - | - | - |
| 1778218799 | 11.67° C | 93% | 994.1 hPa | 0.51 mm | - | - | - |
| 1778218499 | 11.67° C | 93% | 993.9 hPa | 0.51 mm | - | - | - |
| 1778218199 | 11.67° C | 93% | 993.9 hPa | 0.51 mm | - | - | - |
* Rain latest hour (hover to see other rain measurements)
** Current wind speed in m/s (hover to see current wind gust speed)